PSLV R/B, 40058

Orbit data source: Space-Track

PSLV R/B, 40058 is space debris in SSO originally from a launch on Mon, 30 Jun 2014 UTC launched from the Sirharikota (SRI). Debris objects in space refer to the collection of defunct objects orbiting the Earth. Examples of debris include non-operational satellites, rocket bodies, and fragments generated from explosions, collisions, or faulty payload assembly.

Loading next visibility...
Identifier
40058, 2014-034F
Orbit
SSO
Last TLE update
17 hours ago
Origin
Manufacturer
VSSC/LPSC
Mission
Spacecraft
Bus & Motor
PS-4, Unknown motor
Mass
920 kg wet, 920 kg dry
Launch date (UTC)
2014-06-30 (11 years ago)
Launch vehicle
Unknown
Launch site
Sirharikota (SRI)
Object type
Payload
Rocket body
Debris
Shape & HBR
Cyl + Cyl + 2 Nozzle, 3.238 m
Radar Cross Section
6.185 m², Large (>1 m²)

Expand to show TLE details & history

TLE from 17 hours ago
0 PSLV R/B
1 40058U 14034F   25128.99704831  .00001329  00000-0  16885-3 0  9994
2 40058  98.3285 329.2470 0020155 196.4544 163.6017 14.83351880586168
Epoch: 2025-05-08T23:55Z
Definitive object data (Epoch: 2025-05-08T23:55:44.973Z)
Latitude
-0.00002°
Longitude
103.25009°
Altitude
635.31 km
Speed
7.533 km/s
True Right ascension
21h 56m 59s
True Declination
0° 00' 00"
Sunlit
Object was in daylight at TLE epoch
Visualization TLE readout
Latitude
46.20664°
Longitude
-67.28604°
Altitude
618.988 km
Speed
7.558 km/s
Apparent Right ascension
11h 44m 35s
Apparent Declination
5° 52' 22"
Sunlit
Object is in daylight
Visualization observer readout
Local Sidereal Time
00:53:37
Azimuth
23.217° NE
Elevation
-41.525°
Doppler factor
1
Orbital elements
Apogee altitude
629.916 km
Perigee altitude
601.724 km
Semi-major axis
6,993.957 km
Eccentricity
0.0020155
Inclination
98.3285°
RAAN
329.247°
Arg. of periapsis
196.4544°
True anomaly
163.66675°
Mean anomaly
163.6017°
Eccentric anomaly
163.63424°
Mean motion
3.71072 °/min
BSTAR
0.00016885
Orbital period
97.02 mins
Loading maneuver chart data...
Loading SW <> Apogee altitude chart data...
Loading historical data...
Loading historical data...
Loading historical data...
Loading historical data...
Loading historical data...
Loading historical data...
Loading historical data...
Other satellites on launch #34 in the year 2014 (2014-06-30 UTC)

PSLV R/B Visibility forecast

Observer location: undefined°, undefined°

Span
Click to sort rows by Start time (UTC) header in descending order
Start Az.
Max El. time (UTC)
Max El. Az.
Max El.
End time (UTC)
End Az.
7 mins2025-05-10 02:24:06.241Z6.526° NNE2025-05-10 02:27:06.241Z323.167° NNW42.068°2025-05-10 02:31:06.241Z203.548° SW
7 mins2025-05-10 13:18:06.241Z164.983° S2025-05-10 13:21:06.241Z352.925° N44.349°2025-05-10 13:25:06.241Z347.339° N
|